TimeMST,TemperatureF,Dew PointF,Humidity,Sea Level PressureIn,VisibilityMPH,Wind Direction,Wind SpeedMPH,Gust SpeedMPH,PrecipitationIn,Events,Conditions,WindDirDegrees,DateUTC
12:02 AM,28.4,26.6,93,30.29,0.8,WSW,6.9,-,0.02,Snow,Light Snow,250,2014-01-14 07:02:00
12:11 AM,26.6,26.6,100,30.29,1.0,West,4.6,-,0.02,Snow,Light Snow,260,2014-01-14 07:11:00
12:23 AM,26.6,26.6,100,30.30,2.0,WSW,3.5,-,0.02,Snow,Light Snow,250,2014-01-14 07:23:00
12:32 AM,26.6,26.6,100,30.30,1.5,WSW,5.8,-,0.03,Snow,Light Snow,240,2014-01-14 07:32:00
12:37 AM,26.6,26.6,100,30.30,2.0,WSW,4.6,-,0.03,Snow,Light Snow,240,2014-01-14 07:37:00
12:53 AM,27.0,27.0,100,30.40,1.8,WSW,3.5,-,0.03,Snow,Light Snow,240,2014-01-14 07:53:00
1:16 AM,26.6,26.6,100,30.30,2.0,SW,3.5,-,0.00,Snow,Light Snow,220,2014-01-14 08:16:00
1:31 AM,26.6,26.6,100,30.31,2.0,SSW,3.5,-,0.01,Snow,Light Snow,210,2014-01-14 08:31:00
1:53 AM,27.0,26.1,96,30.40,2.0,SSW,6.9,-,0.01,Snow,Light Snow,210,2014-01-14 08:53:00
2:19 AM,26.6,26.6,100,30.32,6.0,SSW,5.8,-,0.00,Snow,Light Snow,200,2014-01-14 09:19:00
2:53 AM,26.1,26.1,100,30.48,6.0,SW,5.8,-,0.00,Snow,Light Snow,220,2014-01-14 09:53:00
3:53 AM,25.0,25.0,100,30.49,10.0,South,5.8,-,0.00,,Overcast,170,2014-01-14 10:53:00
4:53 AM,24.1,21.9,91,30.51,10.0,SSE,6.9,-,N/A,,Overcast,150,2014-01-14 11:53:00
5:53 AM,21.0,19.9,96,30.51,10.0,SSE,6.9,-,N/A,,Mostly Cloudy,160,2014-01-14 12:53:00
6:53 AM,19.0,16.0,88,30.51,10.0,SSE,8.1,-,N/A,,Clear,150,2014-01-14 13:53:00
7:53 AM,16.0,14.0,92,30.52,10.0,South,6.9,-,N/A,,Clear,190,2014-01-14 14:53:00
8:53 AM,19.0,17.1,92,30.52,10.0,SSW,12.7,-,N/A,,Clear,210,2014-01-14 15:53:00
9:53 AM,27.0,23.0,85,30.50,10.0,SSW,15.0,-,N/A,,Clear,210,2014-01-14 16:53:00
10:53 AM,28.9,24.1,82,30.49,10.0,SW,15.0,-,N/A,,Clear,220,2014-01-14 17:53:00
11:53 AM,33.1,25.0,72,30.47,10.0,SW,13.8,-,N/A,,Clear,230,2014-01-14 18:53:00
12:53 PM,36.0,27.0,70,30.44,10.0,SW,15.0,-,N/A,,Clear,220,2014-01-14 19:53:00
1:53 PM,37.9,30.0,73,30.42,10.0,SW,11.5,-,N/A,,Clear,220,2014-01-14 20:53:00
2:53 PM,41.0,30.9,67,30.39,10.0,WSW,16.1,24.2,N/A,,Clear,240,2014-01-14 21:53:00
3:53 PM,39.9,30.9,70,30.38,10.0,SW,15.0,-,N/A,,Clear,220,2014-01-14 22:53:00
4:53 PM,39.0,30.0,70,30.38,10.0,SW,17.3,-,N/A,,Overcast,220,2014-01-14 23:53:00
5:53 PM,37.0,28.9,73,30.38,10.0,SW,17.3,-,N/A,,Clear,230,2014-01-15 00:53:00
6:53 PM,37.0,28.9,73,30.36,10.0,SW,13.8,-,N/A,,Clear,220,2014-01-15 01:53:00
7:53 PM,37.0,28.9,73,30.36,10.0,SW,16.1,24.2,N/A,,Clear,230,2014-01-15 02:53:00
8:53 PM,37.9,28.9,70,30.33,10.0,SW,17.3,-,N/A,,Clear,230,2014-01-15 03:53:00
9:53 PM,37.0,28.0,70,30.28,10.0,SW,17.3,-,N/A,,Clear,230,2014-01-15 04:53:00
10:53 PM,39.9,26.1,58,30.24,10.0,WSW,21.9,27.6,N/A,,Clear,240,2014-01-15 05:53:00
11:53 PM,41.0,25.0,53,30.20,10.0,WSW,19.6,29.9,N/A,,Clear,240,2014-01-15 06:53:00